Home > Weather > Thousand Oaks > Past weeks

Flag for USA Past Weather in Thousand Oaks, California, USA — Yesterday and Last 2 Weeks

Now
68 °F

Fog.


Feels Like: 68 °F
Forecast: 64 / 85 °F
Wind: 5 mph from West

Location: Camarillo Airport

Current Time: Jul 25, 2016 at 1:13:52 AM

Latest Report: Jul 24, 2016 at 11:55 PM


Visibility: 4 mi

Pressure: 29.93 "Hg

Humidity: 93%

Dew Point: 66 °F

Location of Thousand OaksLocation

Past Weather in Thousand Oaks — Graph

°F

Thousand Oaks Temperature Yesterday

Maximum temperature yesterday: 81 °F (at 11:55 AM)
Minimum temperature yesterday: 63 °F (at 6:55 AM)
Average temperature yesterday: 72 °F

High & Low Weather Summary for the Past Weeks

 TemperatureHumidityPressure
High88 °F (Jul 22, 12:55 PM)100% (Jul 24, 4:55 AM)30.06 "Hg (Jul 24, 4:55 AM)
Low58 °F (Jul 11, 4:55 AM)34% (Jul 23, 2:55 PM)29.80 "Hg (Jul 23, 4:55 PM)
Average70 °F73%29.95 "Hg
* Reported Jul 9 11:55 PM — Jul 24 11:55 PM, Thousand Oaks, Weather by CustomWeather, © 2016

Note: Actual official high and low records may vary slightly from our data, if they occured in-between our weather recording intervals... More about our weather records

Advertising

Thousand Oaks Weather History for the Previous 24 Hours

Scroll right to see more
 ConditionsComfort  
Time TempWeatherWind HumidityBarometerVisibility
11:55 PM
Sun, Jul 24
68 °FFog.5 mph93%29.93 "Hg4 mi
10:55 PM69 °FFog.7 mph93%29.93 "Hg5 mi
9:55 PM70 °FFog.5 mph90%29.92 "Hg6 mi
8:55 PM72 °FSunny.5 mph81%29.91 "Hg7 mi
7:55 PM73 °FSunny.6 mph79%29.90 "Hg7 mi
6:55 PM76 °FSunny.7 mph72%29.89 "Hg8 mi
5:55 PM79 °FSunny.8 mph67%29.89 "Hg8 mi
4:55 PM78 °FSunny.9 mph69%29.90 "Hg8 mi
3:55 PM79 °FSunny.9 mph67%29.91 "Hg8 mi
2:55 PM79 °FSunny.12 mph67%29.92 "Hg8 mi
1:55 PM80 °FSunny.13 mph64%29.93 "Hg8 mi
12:55 PM80 °FSunny.15 mph64%29.94 "Hg9 mi
11:55 AM81 °FScattered clouds.14 mph60%29.93 "Hg4 mi
10:55 AM78 °FSunny.9 mph69%29.93 "Hg8 mi
9:55 AM75 °FSunny.7 mph74%29.91 "Hg5 mi
8:55 AM72 °FSunny.3 mph76%29.90 "Hg7 mi
7:55 AM69 °FSunny.No wind81%29.89 "Hg6 mi
6:55 AM63 °FFog.No wind93%29.88 "Hg6 mi
5:55 AM64 °FFog.No wind100%29.86 "Hg1 mi
4:55 AM65 °FFog.No wind100%29.84 "Hg0 mi
3:55 AM65 °FFog.No wind97%29.83 "Hg1 mi
2:55 AM66 °FClear.No wind81%29.83 "Hg8 mi
1:55 AM66 °FClear.6 mph84%29.82 "Hg8 mi
Weather by CustomWeather, © 2016

See weather overviewHow to use our weather pages